Showing default

METEOR M2-4, 59051

Orbit data source: Space-Track

METEOR M2-4, 59051 is a Commonwealth of Independent States-origin payload satellite in SSO that was launched on Thu, 29 Feb 2024 UTC via a SOYUZ-2-1B launch vehicle from the Vostochny Cosmodrome (VOSTO). Payload-class satellites include a variety of spacecraft equipped with specific instruments for various scientific and technological missions. These include communications satellites like Starlink; space stations such as the ISS; scientific satellites like the Hubble; Earth observation satellites from companies like Planet Labs, Umbra, and HawkEye 360; GPS; miniature CubeSats for education and research; and military/defense satellites.

Loading next visibility...
Identifier
59051, 2024-039A
Orbit
SSO
Country
Flag of CISCIS
Related business
Manufacturer
VNIIEM
Mission
Operational Civil Weather
Bus & Motor
RESURS-O, Unknown motor
Mass
3,200 kg wet, ~3,000 kg dry
Launch date (UTC)
2024-02-29 (2 years ago)
Launch vehicle
SOYUZ-2-1B
Launch site
Vostochny Cosmodrome (VOSTO)
Object type
Payload
Rocket body
Debris
Shape & HBR
Cyl + 2 Pan, 7.0 m
Radar Cross Section
26.744 m², Large (>1 m²)

Expand to show TLE details & history
Last TLE update: 11 hours ago

TLE from 11 hours ago
0 METEOR M2-4
1 59051U 24039A   26169.30890603  .00000016  00000-0  26815-4 0  9994
2 59051  98.7011 128.5928 0007358 157.8364 202.3133 14.22429678119426
Epoch: 2026-06-18T07:24Z
TLE epoch observation values (Epoch: 2026-06-18T07:24:49.480Z)
Latitude
-0.00007°
Longitude
110.83256°
Altitude
824.965 km
Speed
7.438 km/s
True Right ascension
08h 34m 22s
True Declination
0° 00' 00"
Sunlit
Object was in daylight at epoch
Visualization orbit readout
Latitude
Unknown
Longitude
Unknown
Altitude
Unknown
Speed
Unknown
Apparent Right ascension
Unknown
Apparent Declination
Unknown
Sunlit
N/A
Visualization observer readout
Local Sidereal Time
05:18:41
Azimuth
Unknown
Elevation
Unknown
Doppler factor
Unknown
Orbital elements
Apogee altitude
819.595 km
Perigee altitude
809.01 km
Semi-major axis
7,192.439 km
Eccentricity
0.00074
Inclination
98.7011°
RAAN
128.5928°
Arg. of periapsis
157.8364°
True anomaly
202.28131°
Mean anomaly
202.3133°
Eccentric anomaly
202.2973°
Mean motion
3.55819 °/min
Orbital period
101.18 mins
BSTAR
0.000026815
Loading maneuver chart data...
Computing Atmospheric mass density...
Loading historical data...
Loading historical data...
Loading historical data...
Loading historical data...
Loading historical data...
Loading historical data...
Loading historical data...

Documentation

Showing up to 5 results
|